This is the latest recevied weather packets stored in our database for station/object OE6PWE-13. If no packets are shown the sender has not sent any weather packets the latest 10 day(s).
| Time | Temp. | Humidity | Pressure | Rain* | Wind** | Luminosity | Snow |
|---|---|---|---|---|---|---|---|
| 1788572711 | 15.56° C | 99% | 1015 hPa | 0 mm | - | - | - |
| 1788571812 | 16.11° C | 99% | 1015 hPa | 0 mm | - | - | - |
| 1788570912 | 16.11° C | 99% | 1015 hPa | 0 mm | - | - | - |
| 1788570012 | 16.11° C | 99% | 1014 hPa | 0 mm | - | - | - |
| 1788569112 | 16.11° C | 99% | 1014 hPa | 0 mm | - | - | - |
| 1788568212 | 16.67° C | 99% | 1014 hPa | 0 mm | - | - | - |
| 1788567312 | 16.67° C | 98% | 1015 hPa | 0 mm | - | - | - |
| 1788566412 | 16.67° C | 98% | 1014 hPa | 0 mm | - | - | - |
| 1788565511 | 16.67° C | 97% | 1015 hPa | 0 mm | - | - | - |
| 1788564612 | 17.22° C | 96% | 1015 hPa | 0 mm | - | - | - |
| 1788563712 | 17.22° C | 96% | 1014 hPa | 0 mm | - | - | - |
| 1788562812 | 17.22° C | 96% | 1015 hPa | 0 mm | - | - | - |
| 1788561914 | 17.22° C | 96% | 1015 hPa | 0 mm | - | - | - |
| 1788561011 | 17.78° C | 94% | 1015 hPa | 0 mm | - | - | - |
| 1788560111 | 17.78° C | 94% | 1015 hPa | 0 mm | - | - | - |
| 1788559212 | 17.78° C | 93% | 1015 hPa | 0 mm | - | - | - |
| 1788558312 | 17.78° C | 95% | 1014 hPa | 0 mm | - | - | - |
| 1788557411 | 17.78° C | 96% | 1015 hPa | 0 mm | - | - | - |
| 1788556511 | 17.78° C | 95% | 1014 hPa | 0 mm | - | - | - |
| 1788555611 | 18.33° C | 94% | 1014 hPa | 0 mm | - | - | - |
| 1788554711 | 18.33° C | 94% | 1014 hPa | 0 mm | - | - | - |
| 1788553811 | 18.89° C | 91% | 1014 hPa | 0 mm | - | - | - |
| 1788552912 | 19.44° C | 90% | 1014 hPa | 0 mm | - | - | - |
| 1788552011 | 20° C | 89% | 1014 hPa | 0 mm | - | - | - |
| 1788551112 | 20.56° C | 88% | 1014 hPa | 0 mm | - | - | - |
* Rain latest hour (hover to see other rain measurements)
** Current wind speed in m/s (hover to see current wind gust speed)